Weather History for Honolulu, HI

Change the Weather History Date:

Friday, August 30, 2013

  Actual Average Record
Temperature  
Mean Temperature 81 °F 82 °F  
Max Temperature 89 °F 89 °F 93 °F (1997)
Min Temperature 73 °F 75 °F 68 °F (1987)
Degree Days  
Heating Degree Days 0 0  
Month to date heating degree days 0 0  
Since 1 June heating degree days 0 0  
Since 1 July heating degree days 0 0  
Cooling Degree Days 16 17  
Month to date cooling degree days 492 510  
Year to date cooling degree days 2844 2970  
Since 1 June cooling degree days 1384 1468  
Growing Degree Days 30 (Base 50)    
Moisture  
Dew Point 65 °F    
Average Humidity 59    
Maximum Humidity 79    
Minimum Humidity 39    
Precipitation  
Precipitation 0.00 in 0.02 in 0.28 in (1956)
Month to date precipitation 0.10 0.54  
Year to date precipitation 9.08 8.88  
Snow  
Snow 0.00 in - - ()
Month to date snowfall 0.0  
Since 1 June snowfall 0.0  
Since 1 July snowfall 0.0  
Snow Depth 0.00 in    
Sea Level Pressure  
Sea Level Pressure 29.98 in    
Wind  
Wind Speed 9 mph (ENE)    
Max Wind Speed 18 mph    
Max Gust Speed 24 mph    
Visibility 10 miles    
Events      
T = Trace of Precipitation, MM = Missing Value Source: NWS Daily Summary

Daily Weather History Graph

Daily Weather History Graph

Search for Another Location

Airport:

Trip Planner

Search our weather history database for the weather conditions in past years. The results will help you decide how hot, cold, wet, or windy it might be!

Date:

Astronomy

Aug. 30, 2013 Rise Set
Actual Time 6:14 AM HST 6:49 PM HST
Civil Twilight 5:52 AM HST 7:11 PM HST
Nautical Twilight 5:25 AM HST 7:38 PM HST
Astronomical Twilight 4:58 AM HST 8:04 PM HST
Moon 1:24 AM HST (8/30) 2:52 PM HST (8/30)
Length of Visible Light 13h 19m
Length of Day
12h 34m
Waning Crescent, 27% of the Moon is Illuminated
Aug 30
Waning Crescent
Sep 5
New
Sep 12
First Quarter
Sep 19
Full
Sep 26
Last Quarter

Hourly Weather History & Observations

Time (HST) Temp. Heat Index Dew Point Humidity Pressure Visibility Wind Dir Wind Speed Gust Speed Precip Events Conditions
12:53 AM 77.0 °F - 66.9 °F 71% 29.96 in 10.0 mi ENE 6.9 mph - N/A   Partly Cloudy
1:53 AM 75.9 °F - 66.9 °F 74% 29.95 in 10.0 mi East 8.1 mph - N/A   Partly Cloudy
2:53 AM 75.0 °F - 66.9 °F 76% 29.94 in 10.0 mi Calm Calm - N/A   Partly Cloudy
3:53 AM 73.9 °F - 66.9 °F 79% 29.94 in 10.0 mi NW 3.5 mph - N/A   Partly Cloudy
4:53 AM 73.0 °F - 66.0 °F 79% 29.95 in 10.0 mi Calm Calm - N/A   Partly Cloudy
5:53 AM 73.0 °F - 66.9 °F 81% 29.96 in 10.0 mi NE 4.6 mph - N/A   Partly Cloudy
6:53 AM 75.9 °F - 66.9 °F 74% 29.98 in 10.0 mi ENE 8.1 mph - N/A   Scattered Clouds
7:53 AM 79.0 °F - 66.9 °F 66% 29.99 in 10.0 mi East 8.1 mph - N/A   Scattered Clouds
8:53 AM 81.0 °F 82.7 °F 64.9 °F 58% 30.00 in 10.0 mi East 9.2 mph - N/A   Scattered Clouds
9:53 AM 84.0 °F 84.9 °F 63.0 °F 49% 30.01 in 10.0 mi East 10.4 mph - N/A   Scattered Clouds
10:53 AM 86.0 °F 87.3 °F 64.0 °F 48% 30.01 in 10.0 mi NE 11.5 mph - N/A   Scattered Clouds
11:53 AM 88.0 °F 88.4 °F 62.1 °F 42% 30.00 in 10.0 mi NE 13.8 mph 19.6 mph N/A   Scattered Clouds
12:53 PM 87.1 °F 86.5 °F 59.0 °F 39% 29.98 in 10.0 mi ENE 17.3 mph 21.9 mph N/A   Scattered Clouds
1:53 PM 87.1 °F 87.0 °F 61.0 °F 41% 29.97 in 10.0 mi ENE 13.8 mph 21.9 mph N/A   Scattered Clouds
2:53 PM 87.1 °F 87.5 °F 62.1 °F 43% 29.95 in 10.0 mi NE 12.7 mph 18.4 mph N/A   Scattered Clouds
3:53 PM 86.0 °F 86.8 °F 63.0 °F 46% 29.95 in 10.0 mi ENE 13.8 mph 24.2 mph N/A   Scattered Clouds
4:53 PM 84.9 °F 86.1 °F 64.0 °F 49% 29.96 in 10.0 mi East 16.1 mph - N/A   Scattered Clouds
5:53 PM 81.0 °F 82.5 °F 64.0 °F 56% 29.98 in 10.0 mi ENE 12.7 mph - N/A   Scattered Clouds
6:53 PM 80.1 °F 82.1 °F 66.0 °F 62% 30.00 in 10.0 mi ENE 10.4 mph - N/A   Scattered Clouds
7:53 PM 79.0 °F - 66.0 °F 64% 30.01 in 10.0 mi ENE 12.7 mph - N/A   Partly Cloudy
8:53 PM 79.0 °F - 66.0 °F 64% 30.03 in 10.0 mi East 10.4 mph - N/A   Scattered Clouds
9:53 PM 78.1 °F - 66.9 °F 68% 30.04 in 10.0 mi NNE 3.5 mph - N/A   Scattered Clouds
10:53 PM 77.0 °F - 69.1 °F 76% 30.04 in 10.0 mi Calm Calm - 0.00 in   Mostly Cloudy
11:53 PM 77.0 °F - 68.0 °F 74% 30.04 in 10.0 mi NE 6.9 mph - N/A   Overcast